{"data":{"norad_id":66369,"epoch":"2026-05-25T05:16:57.835776Z","epoch_age_seconds":56759,"freshness":"FRESH","line1":"1 66369U 25254X   26145.22011384  .00020017  00000+0  68571-3 0  9996","line2":"2 66369  53.1577 234.7445 0001565  86.7420 273.3760 15.30219666 30722","mean_motion":15.30219666,"eccentricity":0.0001565,"inclination_deg":53.1577,"raan_deg":234.7445,"arg_perigee_deg":86.742,"mean_anomaly_deg":273.376,"bstar":0.00068571,"rev_number":3072,"period_min":94.104136288103,"perigee_km":474.0838105076,"apogee_km":476.22889132643,"semimajor_km":6853.293350917,"source":"CELESTRAK","updated_at":"2026-05-25T13:38:21.198095Z"}}